THOR ABLESTAR DEB, 5786

Orbit data source: Space-Track

THOR ABLESTAR DEB, 5786 is space debris in LEO originally from a launch on Thu, 29 Jun 1961 UTC launched from the Air Force Eastern Test Range (AFETR). Debris objects in space refer to the collection of defunct objects orbiting the Earth. Examples of debris include non-operational satellites, rocket bodies, and fragments generated from explosions, collisions, or faulty payload assembly.

Loading next visibility...
Identifier
5786, 1961-015KA
Orbit
LEO
Country
Flag of USUS
Related business
Manufacturer
Unknown
Mission
Spacecraft
Bus & Motor
Unknown
Mass
Unknown
Launch date (UTC)
1961-06-29 (64 years ago)
Launch vehicle
Unknown
Launch site
Air Force Eastern Test Range (AFETR)
Object type
Payload
Rocket body
Debris
Shape & HBR
Unknown shape, 0.1 m
Radar Cross Section
Small (<0.1 m²)

Expand to show TLE details & history
Last TLE update: 2 days ago

TLE from 2 days ago
0 THOR ABLESTAR DEB
1 05786U 61015KA  25348.45539204  .00001242  00000-0  80631-3 0  9993
2 05786  67.1209  52.2469 0125660 291.5331  67.2400 14.01968869248662
Epoch: 2025-12-14T10:55Z
TLE epoch observation values (Epoch: 2025-12-14T10:55:45.872Z)
Latitude
Longitude
164.93771°
Altitude
854.757 km
Speed
7.443 km/s
True Right ascension
03h 28m 59s
True Declination
0° 00' 00"
Sunlit
Object was in full shadow at epoch
Visualization orbit readout
Latitude
Unknown
Longitude
Unknown
Altitude
Unknown
Speed
Unknown
Apparent Right ascension
Unknown
Apparent Declination
Unknown
Sunlit
N/A
Visualization observer readout
Local Sidereal Time
04:42:43
Azimuth
Unknown
Elevation
Unknown
Doppler factor
Unknown
Orbital elements
Apogee altitude
976.606 km
Perigee altitude
794.06 km
Semi-major axis
7,263.47 km
Eccentricity
0.01257
Inclination
67.1209°
RAAN
52.2469°
Arg. of periapsis
291.5331°
True anomaly
68.57583°
Mean anomaly
67.24°
Eccentric anomaly
67.90711°
Mean motion
3.50612 °/min
Orbital period
102.68 mins
BSTAR
0.00080631
Loading maneuver chart data...
Computing Atmospheric mass density...
Loading historical data...
Loading historical data...
Loading historical data...
Loading historical data...
Loading historical data...
Loading historical data...
Loading historical data...

Documentation

Showing up to 5 results
|